Regional Weather Roundup
Issued by NWS

Home | Current Version | Previous Version | Graphics & Text | Print | Product List | Glossary On
Versions: 1 2 3 4 5 6 7 8 9 10 11 12 13 14 15 16 17 18 19 20 21 22 23 24 25 26 27 28 29 30 31 32 33 34 35 36 37 38 39 40 41 42 43 44 45 46 47 48 49 50
007
ASUS44 KLIX 221405
RWRLA
LOUISIANA WEATHER ROUNDUP
NATIONAL WEATHER SERVICE NEW ORLEANS LA
900 AM CDT WED OCT 22 2014

NOTE: "FAIR" INDICATES FEW OR NO CLOUDS BELOW 12,000 FEET WITH NO
      SIGNIFICANT WEATHER AND/OR OBSTRUCTIONS TO VISIBILITY.
      SKY/WX - SKY CONDITION AND SIGNIFICANT WEATHER.
      TMP - AIR TEMPERATURE.    DP   - DEWPOINT TEMPERATURE.
      RH  - RELATIVE HUMIDITY.  PRES - PRESSURE.
      HX  - HEAT INDEX.         WCI  - WIND CHILL INDEX.

*  THESE STATIONS ARE NOT NWS OR FAA STATIONS AND ARE NOT UNDER
   NWS QUALITY CONTROL.

LAZ040-048-061>063-065-066-069-221500-
SOUTHEAST LOUISIANA

CITY           SKY/WX    TMP DP  RH WIND       PRES   REMARKS
N.O. AUDUBON     N/A     73  56  56 MISG        N/A
N.O. INTL ARPT MOSUNNY   71  56  58 NE14      30.08R
N.O. LAKEFRONT SUNNY     71  57  61 NE16      30.09R
N.O. DOWNTOWN* FAIR      68  52  56 NE9       30.09R
SLIDELL        SUNNY     63  55  75 N6        30.10R
BATON ROUGE    SUNNY     64  55  72 NE8       30.10R
BOOTHVILLE     SUNNY     74  64  71 NE8       30.06R
BELLE CHASSE   SUNNY     69  58  67 NE8       30.08R
BOGALUSA*        N/A     63  54  73 NE5       30.13R
NEW ROADS*     FAIR      65  54  68 NE6       30.11R
GONZALES*      FAIR      64  56  76 NE6       30.10R
HAMMOND*       SUNNY     66  52  59 NE6       30.12S
HOUMA*         SUNNY     66  63  88 NE6       30.08R
PORT FOURCHON* SUNNY     72  64  78 NE12      30.09R

$$

LAZ041-044-053-054-221500-
SOUTHWEST LOUISIANA

CITY           SKY/WX    TMP DP  RH WIND       PRES   REMARKS
LAKE CHARLES   SUNNY     65  60  84 NE10      30.10R
LAFAYETTE      SUNNY     64  59  83 NE6       30.10R
PATTERSON      SUNNY     66  61  82 NE8       30.10R
SALT POINT       N/A     67  61  81 E5        30.07R
NEW IBERIA     SUNNY     66  58  75 NE10      30.10R
CHENAULT AIRPK SUNNY     64  61  88 NE8       30.10R

$$

LAZ027-028-221500-
CENTRAL LOUISIANA

CITY           SKY/WX    TMP DP  RH WIND       PRES   REMARKS
FORT POLK      SUNNY     65  59  80 NE5       30.11R
ALEXANDRIA INT SUNNY     64  59  83 NE6       30.11R
ALEXANDRIA     SUNNY     63  58  83 VRB3      30.13R

$$

LAZ001-002-221500-
NORTHWEST LOUISIANA

CITY           SKY/WX    TMP DP  RH WIND       PRES   REMARKS
SHREVEPORT     SUNNY     64  57  78 CALM      30.15R
BARKSDALE AFB  SUNNY     63  56  77 VRB1      30.15R
DTN SHREVEPORT SUNNY     61  54  77 VRB3      30.16R

$$

LAZ014-016-221500-
NORTHEAST LOUISIANA

CITY           SKY/WX    TMP DP  RH WIND       PRES   REMARKS
MONROE         SUNNY     63  54  72 NE6       30.18R
TALLULAH       SUNNY     61  54  77 NE5       30.16R

$$




USA.gov is the U.S. government's official web portal to all federal, state and local government web resources and services.